Location: Gälforsberget
(66.6500°N, 22.4167°E)
Time: 19:36:32
(UTC+00:00)

Cosmos 1898 Rocket - Pass Details

Date: 11 April 2026
Orbit: 750 x 778 km, 74.0° (Epoch: 19 May)

Event Time Altitude Azimuth Distance (km) Brightness Sun altitude
Rises 20:45:12 0° 241° (WSW) 3,229 6.7 -12.4°
Reaches altitude 10° 20:47:37 10° 245° (WSW) 2,301 6.0 -12.5°
Maximum altitude 20:52:46 60° 326° (NW) 874 4.1 -12.7°
Drops below altitude 10° 20:57:55 10° 46° (NE) 2,293 6.2 -12.9°
Sets 21:00:20 0° 51° (NE) 3,217 6.9 -13.0°
